To NAV CANADA Home Page Login to a new session Search on AWWS site Feedback and Comments Disclaimer Vers la page française équivalente Tips FAQ What's new on the site To the Forecasts and Observations / NOTAM section To "File a Flight Plan" website Publications and other links Update of the User's profile FIC Telephone Numbers My Weather Data Folder Route Weather Data Regional Weather Data Local Weather Data To the Forecasts and Observations / NOTAM section
Request Generated 10/22/2016 at 13:31:12 UTC . Weather information available at that time is displayed.


FLIN FLON/MB    (show WxCam)

METAR CYFO 221300Z 27005KT 15SM SKC M00/M01 A2989 RMK SLP138=
METAR CYFO 221200Z 28005KT 15SM SKC 01/M01 A2987 RMK SLP131=
METAR CYFO 221100Z 27005KT 15SM FEW037 01/M00 A2986 RMK SC2 SNW

CYFO - No TAF is issued for this station

Your time UTC time
Weather data provided by Environment Canada and NAV CANADA